Погода в Душанбе

Таджикистан     38°34′28″N   68°46′48″E
темп.,
°C
ветер,
м/с
пор.,
м/с
влажн.,
%
обл.,
%
осадки,
мм/ч
давл.,
гПа
погр.,
м
13 мая, чт
чт1323:00+16св11752 1.6 101113
02:00+14в128389 0.9 101130
05:00+14в228347 2.5 101151
08:00+17вюв23715 0.4 1013296
11:00+22вюв23534 1.1 10121108
14:00+24юв324211 0.3 10111819
17:00+23ююз3451100 0.4 1010749
20:00+15всв338077 0.8 101290
14 мая, пт
пт1423:00+15ссв117281 0.9 101312
02:00+13всв22705 0.3 101215
05:00+13св11685 0.3 101211
08:00+18вюв11535 0.0 1012182
11:00+24юз12374 0.0 10111227
14:00+26с122922 0.0 10092568
17:00+26с12309 0.0 10081754
20:00+19в114535 0.0 100912
15 мая, сб
сб1523:00+17св22528 0.0 101012
02:00+15всв11550 0.0 101011
05:00+14всв11570 0.0 101011
08:00+20вюв11500 0.0 1011197
11:00+25ююв11340 0.0 10101250
14:00+28св12261 0.0 10082620
17:00+27всв22299 0.0 10071806
20:00+20св014322 0.0 100813
16 мая, вс
вс1623:00+17св225024 0.0 101017
02:00+15всв12538 0.1 101013
05:00+15всв12545 0.1 101112
08:00+20в12465 0.0 1012197
11:00+27ююв11320 0.0 10101277
14:00+28св11232 0.0 10082991
17:00+28св12240 0.0 10072429
20:00+21вюв11381 0.0 100811
17 мая, пн
пн1723:00+17св22459 0.0 101016
02:00+16св11481 0.0 101112
05:00+15всв11495 0.0 101112
08:00+21в11425 0.0 1011169
11:00+28юв112621 0.0 10101564
14:00+30с13210 0.0 10083137
17:00+29всв22232 0.0 10071597
20:00+22вюв11360 0.0 100811